Other Public Products
Issued by NWS Grand Forks, ND

Home | Current Version | Previous Version | Graphics & Text | Print | Product List | Glossary On
Versions: 1 2 3 4 5 6 7 8 9 10 11 12 13 14 15 16 17 18 19 20 21 22 23 24 25 26 27 28 29 30 31 32 33 34 35 36 37 38 39 40 41 42 43 44 45 46 47 48 49 50
000
FPUS83 KFGF 300810
OPUFGF
PRAIRIE TO PINES WEATHER ROUNDUP
NATIONAL WEATHER SERVICE EASTERN NORTH DAKOTA/GRAND FORKS ND
300 AM CDT WED JUL 30 2014

 **SATELLITE DATA USED TO AUGMENT SKY COVER AT AUTOMATED STATIONS**
 *****  WEATHER ACROSS EASTERN NORTH DAKOTA  *****

CITY           SKY/WX    TMP DP  RH WIND       PRES   REMARKS
GRAND FORKS    CLEAR     56  54  93 W6        30.11R
GRAND FORKS AF CLEAR     57  56  99 W6        30.12S
GRAND CITY NWS   N/A     36 N/A N/A NW3         N/A
BUXTON         NOT AVBL
DEVILS LAKE    CLEAR     57  52  82 CALM      30.13S
FARGO          CLEAR     57  54  89 W3        30.11S
WAHPETON ARPT  SUNNY     54  50  87 W3        30.12S
$$

 *****  WEATHER ACROSS CENTRAL AND WESTERN NORTH DAKOTA  *****

CITY           SKY/WX    TMP DP  RH WIND       PRES   REMARKS
JAMESTOWN      CLEAR     55  51  86 CALM      30.15S
BISMARCK       CLEAR     58  31  35 NE3       30.17S
MINOT          PTCLDY    61  58  90 SW3       30.16S
MINOT AFB      MOCLDY    59  59 100 W6        30.16R
GARRISON         N/A     57  56  96 CALM      30.17S
WILLISTON      CLEAR     60  56  86 NE5       30.18S
DICKINSON      CLEAR     57  55  93 N5        30.17S
HETTINGER      CLEAR     56  53  90 E7        30.16F
$$

 *****  OTHER OBSERVATIONS NORTHEAST NORTH DAKOTA  *****

CITY           SKY/WX    TMP DP  RH WIND       PRES   REMARKS
WALHALLA         N/A     50  50 100 CALM        N/A
LANGDON        FOG       46  45  93 CALM      30.15S VSB<1/4
CAVALIER       FAIR      55  52  88 W8        30.11S
GRAFTON        FAIR      57  55  94 NW6       30.11S
CANDO          FOG       54  54 100 NW3       30.16S VSB 1
FORT TOTTEN    NOT AVBL
ROLLA          FAIR      50  50 100 CALM      30.17S
RUGBY          FAIR      54  54 100 CALM      30.15S FOG
 ***** THE ABOVE OBSERVATIONS ARE NON NWS ARE NOT QUALITY
        CONTROLLED AND MAY MIS-REPORT RAIN FOR SNOW...
$$

 *****  OTHER OBSERVATIONS SOUTHEAST NORTH DAKOTA *****

CITY           SKY/WX    TMP DP  RH WIND       PRES   REMARKS
COOPERSTOWN    NOT AVBL
VALLEY CITY    FAIR      52  52 100 CALM      30.15R
OAKES          NOT AVBL
GWINNER        SUNNY     57  54  88 CALM      30.14S
BUFFALO        NOT AVBL
WYNDMERE       NOT AVBL
 ***** THE ABOVE OBSERVATIONS ARE NON NWS ARE NOT QUALITY
       CONTROLLED AND MAY MIS-REPORT RAIN FOR SNOW...
$$

  *****  WEATHER ACROSS NORTHERN MINNESOTA  *****

CITY           SKY/WX    TMP DP  RH WIND       PRES   REMARKS
FLAG ISLAND    CLEAR     64  57  77 W8        30.05S
WARROAD        CLEAR     61  55  82 W7        30.08S
ROSEAU         CLEAR     61  55  82 W9        30.09R
HALLOCK        CLEAR     55  54  94 CALM      30.10S
THF RVR FALLS  CLEAR     61  55  82 CALM      30.11S
HALSTAD          N/A     56  54  93 W5          N/A
FOSSTON        CLEAR     52  46  82 CALM      30.12S
BAUDETTE       CLEAR     60  55  83 W5        30.07F
WASKISH        CLEAR     61  55  82 NW5       30.07S
CROOKSTON      CLEAR     55  54  94 NW3       30.12R
$$
  *****  WEATHER ACROSS CENTRAL AND WEST MINNESOTA  *****

CITY           SKY/WX    TMP DP  RH WIND       PRES   REMARKS
BEMIDJI        CLEAR     54  52  93 W6        30.10S
PARK RAPIDS    CLEAR     54  52  93 CALM      30.10S
WADENA         CLEAR     57  54  88 W3        30.10S
DETROIT LAKES  CLEAR     61  54  77 NW3       30.13S
MOORHEAD       CLEAR     59  57  94 CALM      30.12S
FERGUS FALLS   CLEAR     55  54  94 CALM      30.13R
ELBOW LAKE     FAIR      60  56  89 CALM      30.12S
MORRIS MN      CLEAR     54  52  94 NW3       30.11S
STAPLES        CLEAR     55  54  94 W3        30.10S
WHEATON        CLEAR     55  55 100 CALM      30.14S
$$
  *****  WEATHER ELSEWHERE ACROSS MINNESOTA  *****

CITY           SKY/WX    TMP DP  RH WIND       PRES   REMARKS
DULUTH         CLEAR     56  53  90 CALM      30.06S FOG
INTRNTL FALLS  CLEAR     50  49  96 CALM      30.05S
ELY            FOG       48  46  93 CALM      30.07S VSB<1/4
CLOQUET        CLEAR     54  52  94 NW3       30.07R
BRAINERD       CLEAR     55  54  96 CALM      30.08F
HIBBING        FOG       50  48  93 CALM      30.07S VSB 1/4
ALEXANDRIA     CLEAR     58  54  86 NW5       30.13S
SAINT CLOUD    CLEAR     58  54  86 CALM      30.08R
MINNEAPOLIS    PTCLDY    63  56  78 NW3       30.06S
$$

  *****  WEATHER ACROSS SOUTH DAKOTA  *****

CITY           SKY/WX    TMP DP  RH WIND       PRES   REMARKS
SIOUX FALLS    CLEAR     55  52  89 CALM      30.15S
BROOKINGS      NOT AVBL
WATERTOWN      CLEAR     55  52  89 CALM      30.15S
HURON          CLEAR     52  50  93 CALM      30.14F
SISSETON         N/A     52  51  97 CALM      30.12S
ABERDEEN       CLEAR     52  51  97 N3        30.15R
MITCHELL       CLEAR     58  53  84 W5        30.15S
PIERRE         CLOUDY    63  57  81 CALM      30.14S
MOBRIDGE       MOCLDY    60  55  83 SE7       30.14S
RAPID CITY     PTCLDY    54  49  83 CALM      30.20F
$$

  *****  SOME WEATHER IN NEARBY STATES *****

CITY           SKY/WX    TMP DP  RH WIND       PRES   REMARKS
GLASGOW MT     CLEAR     63  51  65 E10       30.18R
GREAT FALLS MT CLEAR     69  44  40 CALM      30.16R
CHEYENNE WY    LGT RAIN  55  54  96 NE8       30.32F
SCOTTSBLUFF NE CLOUDY    63  60  90 NE7       30.25F
OMAHA NE       PTCLDY    57  54  89 NW5       30.13S
DES MOINES IA  CLEAR     62  56  80 NW3       30.09F
DAVENPORT IA   CLEAR     56  54  93 W5        30.05F
CHICAGO IL     PTCLDY    60  53  77 W6        30.00S
EAU CLAIRE WI  CLEAR     55  54  96 W3        30.04S
LA CROSSE WI   PTCLDY    61  58  90 CALM      30.03S
$$

  *****  SOME NATIONAL WEATHER *****

CITY           SKY/WX    TMP DP  RH WIND       PRES   REMARKS
LA GUARDIA NY  CLOUDY    68  54  60 NW9       29.96S
RALEIGH NC     MOCLDY    66  60  81 VRB5      30.03R
ATLANTA GA     CLEAR     62  53  72 NW7       30.03S
NEW ORLEANS LA PTCLDY    79  64  60 NE13      30.03F
OKLAHOMA CITY  CLOUDY    73  66  78 E5        30.06S
ALBUQUERQUE NM MOCLDY    69  60  73 NW7       30.21S
SALT LAKE CITY CLOUDY    68  61  78 SE6       30.16S
LOS ANGELES CA MOCLDY    68  62  81 W3        29.96F
BOISE ID       PTCLDY    74  54  49 SE16      30.12S
SEATTLE WA     CLEAR     64  54  69 W3        30.11R
$$

*** WEATHER ACROSS MANITOBA...SASKATCHEWAN AND ONTARIO ***
                ***ONTARIO***

CITY           SKY/WX    TMP DP  RH WIND       PRES   REMARKS
GERALDTON      CLOUDY    52  52 100 CALM      29.98F FOG
THUNDER BAY    CLEAR     46  46 100 W5        30.03F
SIOUX LOOKOUT  PTCLDY    48  48 100 E2        30.03F
TORONTO        MOCLDY    59  55  88 S5        29.92F
BIG TROUT LK   CLOUDY    54  48  82 N5        29.99S
PICKLE LAKE    NOT AVBL
DRYDEN         CLEAR     59  57  94 SW3       30.04F
KENORA         NOT AVBL
$$
                *** MANITOBA***

CITY           SKY/WX    TMP DP  RH WIND       PRES   REMARKS
BRANDON        CLEAR     54  52  94 N3        30.14S
DAUPHIN        CLEAR     57  54  88 W10       30.11S
ISLAND LAKE    PTCLDY    55  50  82 CALM      30.06S
PILOT MOUND      N/A     52  50  93 SW5         N/A
THE PAS        CLEAR     66  57  72 W2        30.06S
THOMPSON       PTCLDY    52  50  93 N2        30.06S
WINNIPEG       PTCLDY    54  52  94 W7        30.10S
LYNN LAKE      CLEAR     59  52  77 CALM      30.07S
CHURCHILL      CLEAR     50  48  93 SE7       30.07S
GILLAM         CLEAR     48  48 100 SE2       30.05S
$$
                ***SASKATCHEWAN***

CITY           SKY/WX    TMP DP  RH WIND       PRES   REMARKS
ESTEVAN        PTCLDY    54  52  94 N2        30.19S
KINDERSLEY     CLEAR     63  57  82 SE12      30.12S
LLOYDMINSTER   MOCLDY    63  59  88 E6        30.10F
PRINCE ALBERT  PTCLDY    57  57 100 CALM      30.13S
REGINA         CLEAR     59  55  88 SE5       30.19S
YORKTON        CLEAR     57  55  94 SW5       30.16S



USA.gov is the U.S. government's official web portal to all federal, state and local government web resources and services.